| time (UTC) | temp F | wind direction | speed MPH | gust MPH | rain 1hr in | rain 24hr in | rain mn in | humidity % | barometer mb |
| 20260906073003 | 97 | 0 | 0.0 | 0.0 | 0.00 | 0.00 | 0.00 | 36 | 999.9 |
| 20260906070003 | 93 | 0 | 0.0 | 0.0 | 0.00 | 0.00 | 0.00 | 38 | 999.7 |
| 20260906063004 | 99 | 0 | 0.0 | 0.0 | 0.00 | 0.00 | 0.00 | 34 | 999.4 |
| 20260906060005 | 101 | 0 | 0.0 | 0.0 | 0.00 | 0.00 | 0.00 | 34 | 999.3 |
| 20260906053003 | 83 | 0 | 0.0 | 0.0 | 0.00 | 0.00 | 0.00 | 69 | 999.4 |
| 20260906050004 | 74 | 0 | 0.0 | 0.0 | 0.00 | 0.00 | 0.00 | 80 | 999.3 |
| 20260906043003 | 71 | 0 | 0.0 | 0.0 | 0.00 | 0.00 | 0.00 | 84 | 999.3 |
| 20260906040002 | 62 | 0 | 0.0 | 0.0 | 0.00 | 0.00 | 0.00 | 10 | 999.0 |
| 20260906033004 | 61 | 0 | 0.0 | 0.0 | 0.00 | 0.00 | 0.00 | 10 | 998.6 |
| 20260906030004 | 61 | 0 | 0.0 | 0.0 | 0.00 | 0.00 | 0.00 | 10 | 998.6 |
| 20260906023004 | 61 | 0 | 0.0 | 0.0 | 0.00 | 0.00 | 0.00 | 10 | 998.6 |
| 20260906020003 | 62 | 0 | 0.0 | 0.0 | 0.00 | 0.00 | 0.00 | 10 | 998.4 |
| 20260906013003 | 63 | 0 | 0.0 | 0.0 | 0.00 | 0.00 | 0.00 | 10 | 998.5 |
| 20260906010002 | 63 | 0 | 0.0 | 0.0 | 0.00 | 0.00 | 0.00 | 10 | 998.4 |
| 20260906003002 | 64 | 0 | 0.0 | 0.0 | 0.00 | 0.00 | 0.00 | 10 | 998.4 |
| 20260906000004 | 64 | 0 | 0.0 | 0.0 | 0.00 | 0.00 | 0.00 | 10 | 998.3 |
| 20260905233002 | 65 | 0 | 0.0 | 0.0 | 0.00 | 0.00 | 0.00 | 10 | 998.5 |
| 20260905230004 | 66 | 0 | 0.0 | 0.0 | 0.00 | 0.00 | 0.00 | 10 | 998.4 |
| 20260905223003 | 67 | 0 | 0.0 | 0.0 | 0.00 | 0.00 | 0.00 | 10 | 998.6 |
| 20260905213003 | 69 | 0 | 0.0 | 0.0 | 0.00 | 0.00 | 0.00 | 10 | 998.9 |
| 20260905210004 | 69 | 0 | 0.0 | 0.0 | 0.00 | 0.00 | 0.00 | 10 | 999.0 |
| 20260905203004 | 70 | 0 | 0.0 | 0.0 | 0.00 | 0.00 | 0.00 | 10 | 999.1 |
| 20260905200004 | 70 | 0 | 0.0 | 0.0 | 0.00 | 0.00 | 0.00 | 10 | 999.3 |
| 20260905193004 | 71 | 0 | 0.0 | 0.0 | 0.00 | 0.00 | 0.00 | 10 | 999.3 |
| 20260905190003 | 71 | 0 | 0.0 | 0.0 | 0.00 | 0.00 | 0.00 | 10 | 999.3 |
| 20260905183002 | 72 | 0 | 0.0 | 0.0 | 0.00 | 0.00 | 0.00 | 10 | 999.5 |
| 20260905180005 | 72 | 0 | 0.0 | 0.0 | 0.00 | 0.00 | 0.00 | 10 | 999.6 |
| 20260905173004 | 73 | 0 | 0.0 | 0.0 | 0.00 | 0.00 | 0.00 | 10 | 999.2 |
| 20260905170005 | 74 | 0 | 0.0 | 0.0 | 0.00 | 0.00 | 0.00 | 92 | 999.1 |
| 20260905163004 | 75 | 0 | 0.0 | 0.0 | 0.00 | 0.00 | 0.00 | 82 | 998.7 |
| 20260905160003 | 77 | 0 | 0.0 | 0.0 | 0.00 | 0.00 | 0.00 | 70 | 998.8 |
| 20260905153003 | 78 | 0 | 0.0 | 0.0 | 0.00 | 0.00 | 0.00 | 62 | 998.8 |
| 20260905150004 | 80 | 0 | 0.0 | 0.0 | 0.00 | 0.00 | 0.00 | 55 | 998.9 |
| 20260905143002 | 80 | 0 | 0.0 | 0.0 | 0.00 | 0.00 | 0.00 | 48 | 998.9 |
| 20260905140004 | 81 | 0 | 0.0 | 0.0 | 0.00 | 0.00 | 0.00 | 46 | 999.1 |
| 20260905133005 | 82 | 0 | 0.0 | 0.0 | 0.00 | 0.00 | 0.00 | 48 | 999.1 |
| 20260905130003 | 83 | 0 | 0.0 | 0.0 | 0.00 | 0.00 | 0.00 | 44 | 999.3 |
| 20260905123002 | 84 | 0 | 0.0 | 0.0 | 0.00 | 0.00 | 0.00 | 45 | 999.5 |
| 20260905120003 | 84 | 0 | 0.0 | 0.0 | 0.00 | 0.00 | 0.00 | 48 | 999.7 |
| 20260905113003 | 85 | 0 | 0.0 | 0.0 | 0.00 | 0.00 | 0.00 | 43 | 999.7 |
| 20260905110003 | 86 | 0 | 0.0 | 0.0 | 0.00 | 0.00 | 0.00 | 38 | 999.9 |
| 20260905103005 | 88 | 0 | 0.0 | 0.0 | 0.00 | 0.00 | 0.00 | 38 | 1000.1 |
| 20260905100003 | 96 | 0 | 0.0 | 0.0 | 0.00 | 0.00 | 0.00 | 33 | 1000.1 |
| 20260905093002 | 91 | 0 | 0.0 | 0.0 | 0.00 | 0.00 | 0.00 | 42 | 1000.2 |
| 20260905090004 | 89 | 0 | 0.0 | 0.0 | 0.00 | 0.00 | 0.00 | 45 | 1000.5 |
| 20260905083004 | 90 | 0 | 0.0 | 0.0 | 0.00 | 0.00 | 0.00 | 45 | 1000.7 |
| 20260905080003 | 88 | 0 | 0.0 | 0.0 | 0.00 | 0.00 | 0.00 | 50 | 1000.8 |